Погода в Акселе

Россия / Республика Мордовия     54°35′51″N   43°25′04″E
темп.,
°C
ветер,
м/с
пор.,
м/с
влажн.,
%
обл.,
%
осадки,
мм/ч
давл.,
гПа
погр.,
м
13 августа, сб
сб1300:00+17ссв2259100 0.0 102311
03:00+16ссв1163100 0.0 102311
06:00+17с226226 0.0 102322
09:00+23ссв22430 0.0 1022463
12:00+27ссв22335 0.0 10221453
15:00+28св22275 0.0 10201938
18:00+26всв2338100 0.0 102061
21:00+21в3556100 0.0 102082
14 августа, вс
вс1400:00+18в3469100 0.0 102163
03:00+17в3475100 0.0 102153
06:00+18в2475100 0.0 1021115
09:00+23в3457100 0.0 1021575
12:00+26вюв3344100 0.0 10201613
15:00+26вюв3443100 0.0 10201677
18:00+25в3648100 0.0 1019273
21:00+21вюв4863100 0.0 1020147
15 августа, пн
пн1500:00+19вюв366652 0.0 1020110
03:00+17вюв366799 0.0 102198
06:00+17вюв3667100 0.0 1022133
09:00+23юв4545100 0.0 1022541
12:00+26вюв4537100 0.0 10221577
15:00+28вюв4434100 0.0 10211941
18:00+26в4743100 0.0 1021433
21:00+20вюв356050 0.0 102270
16 августа, вт
вт1600:00+18вюв346836 0.0 102346
03:00+17в34754 0.0 102451
06:00+17в36752 0.0 1024131
09:00+24в56483 0.0 1024897
12:00+28в67345 0.0 10231980
15:00+28в66325 0.0 10232223
18:00+26в57394 0.0 1023822
21:00+20вюв410574 0.0 1023171
17 августа, ср
ср1700:00+17в48622 0.0 1024128
03:00+16в37665 0.0 1023117
06:00+16в37675 0.0 1024169
09:00+24вюв56415 0.0 1023600
12:00+28вюв56296 0.0 10222048
15:00+29вюв552763 0.0 10212295
18:00+26в5736100 0.0 1021419
21:00+20в495799 0.0 1021149